Voltar ao catálogo

STARLINK-4053

AtivoComunicaçõesVLEO
NORAD 53536·PAYLOAD·🇺🇸 United States

Lançado Aug 19, 2022 de Cape Canaveral Space Force Station

Loading…

Próximas Passagens (próximas 24 horas)

TLE

AtualizadoSource: CelesTrak SupGP

Época: Sep 15, 2026, 02:59 UTC

1 53536C 22101K   26258.12479167 -.00008074  00000+0 -25960-3 0  2581
2 53536  53.1583 280.8034 0001265  88.6391 286.5277 15.31709653    11

Acompanhe STARLINK-4053 em tempo real com AllMySat

Download on the App Store